ATLAS 5 CENTAUR DEB, 44009

Orbit data source: Space-Track

ATLAS 5 CENTAUR DEB, 44009 is space debris in HEO originally from a launch on Wed, 17 Sep 2014 UTC launched from the Air Force Eastern Test Range (AFETR). Debris objects in space refer to the collection of defunct objects orbiting the Earth. Examples of debris include non-operational satellites, rocket bodies, and fragments generated from explosions, collisions, or faulty payload assembly.

Loading next visibility...
Identifier
44009, 2014-055BQ
Orbit
HEO
Country
Flag of USUS
Related business
Flag of USUnited Launch Alliance/Lockheed Martin (US)
Manufacturer
Unknown
Mission
Spacecraft
Bus & Motor
Unknown
Mass
Unknown
Launch date (UTC)
2014-09-17 (12 years ago)
Launch vehicle
Unknown
Launch site
Air Force Eastern Test Range (AFETR)
Object type
Payload
Rocket body
Debris
Shape & HBR
Unknown shape, 1.1 m
Radar Cross Section
Medium (>0.1 m² and <1 m²)

Expand to show TLE details & history
Last TLE update: 4 days ago

TLE from 4 days ago
0 ATLAS 5 CENTAUR DEB
1 44009U 14055BQ  26252.21766967 -.00000163  00000-0  00000-0 0  9994
2 44009  20.9421  98.8166 4985825 248.7607  52.2548  1.91632824 55563
Epoch: 2026-09-09T05:13Z
TLE epoch observation values (Epoch: 2026-09-09T05:13:26.659Z)
Latitude
-0.00002°
Longitude
32.29024°
Altitude
18,732.549 km
Speed
4.146 km/s
True Right ascension
06h 35m 41s
True Declination
0° 00' 00"
Sunlit
Object was in daylight at epoch
Visualization orbit readout
Latitude
Unknown
Longitude
Unknown
Altitude
Unknown
Speed
Unknown
Apparent Right ascension
Unknown
Apparent Declination
Unknown
Sunlit
N/A
Visualization observer readout
Local Sidereal Time
21:41:20
Azimuth
Unknown
Elevation
Unknown
Doppler factor
Unknown
Orbital elements
Apogee altitude
34,654.979 km
Perigee altitude
7,351.319 km
Semi-major axis
27,381.286 km
Eccentricity
0.49858
Inclination
20.9421°
RAAN
98.8166°
Arg. of periapsis
248.7607°
True anomaly
111.23935°
Mean anomaly
52.2548°
Eccentric anomaly
80.42337°
Mean motion
0.47903 °/min
Orbital period
751.52 mins
BSTAR
0
Loading maneuver chart data...
Computing Atmospheric mass density...

Documentation

Showing up to 5 results
|